Location: Ay?beleni
(36.6500°N, 30.3000°E)
Time: 01:19:20
(UTC+00:00)

CZ-2C R/B - Pass Details

Date: 09 April 2020
Orbit: 785 x 870 km, 98.3° (Epoch: 06 June)

Event Time Altitude Azimuth Distance (km) Brightness Sun altitude
Rises 17:38:13 0° 21° (NNE) 3,284 5.8 -14.3°
Reaches altitude 10° 17:40:41 10° 30° (NNE) 2,354 4.9 -14.8°
Maximum altitude 17:45:31 39° 98° (E) 1,183 3.0 -15.7°
Drops below altitude 10° 17:50:22 10° 166° (SSE) 2,370 4.7 -16.6°
Enters shadow 17:50:27 10° 167° (SSE) 2,399 4.7 -16.6°
